Uvalde, Texas, United States (78801)
Lat: 29.21N, Lon: 99.79W
Wx Zone: TXZ203
Local Info
Past Weather Observations for Today

NOTE: This archive is for the closest National Weather Service station to Uvalde. Information may differ from the station used for current weather conditions.

Click here for Long-term Archive

Time Weather Temperature Dewpoint Humidity Pressure Winds Precip Visibility
21:55
Clear
50°F / 10°C 48°F / 9°C 94% 29.65 in
(1004 mb)
NE 4.6 mph
(NE 7 kph)
- 7SM
21:35
Clear
52°F / 11°C 50°F / 10°C 94% 29.65 in
(1004 mb)
NE 4.6 mph
(NE 7 kph)
- 7SM
21:15
Clear
54°F / 12°C 50°F / 10°C 88% 29.62 in
(1003 mb)
NE 4.6 mph
(NE 7 kph)
- 10SM
20:55
Clear
54°F / 12°C 50°F / 10°C 88% 29.65 in
(1004 mb)
ENE 3.5 mph
(ENE 6 kph)
- 10SM
20:35
Clear
54°F / 12°C 48°F / 9°C 82% 29.62 in
(1003 mb)
ENE 4.6 mph
(ENE 7 kph)
- 10SM
20:15
Clear
55°F / 13°C 50°F / 10°C 82% 29.62 in
(1003 mb)
E 5.8 mph
(E 9 kph)
- 10SM
19:55
Clear
55°F / 13°C 50°F / 10°C 82% 29.62 in
(1003 mb)
E 5.8 mph
(E 9 kph)
- 10SM
19:35
Clear
55°F / 13°C 50°F / 10°C 82% 29.62 in
(1003 mb)
SE 4.6 mph
(SE 7 kph)
- 10SM
19:15
Clear
55°F / 13°C 50°F / 10°C 82% 29.62 in
(1003 mb)
E 4.6 mph
(E 7 kph)
- 10SM
18:55
Clear
57°F / 14°C 52°F / 11°C 82% 29.62 in
(1003 mb)
E 3.5 mph
(E 6 kph)
- 10SM
18:35
Clear
57°F / 14°C 50°F / 10°C 77% 29.62 in
(1003 mb)
Calm - 10SM
18:15
Clear
59°F / 15°C 50°F / 10°C 72% 29.62 in
(1003 mb)
Calm - 10SM
17:55
Clear
61°F / 16°C 52°F / 11°C 72% 29.62 in
(1003 mb)
Calm - 10SM
17:35
Clear
61°F / 16°C 50°F / 10°C 68% 29.65 in
(1004 mb)
S 3.5 mph
(S 6 kph)
- 10SM
17:15
Clear
63°F / 17°C 50°F / 10°C 64% 29.65 in
(1004 mb)
SSE 4.6 mph
(SSE 7 kph)
- 10SM
16:55
Clear
68°F / 20°C 52°F / 11°C 56% 29.65 in
(1004 mb)
SW 4.6 mph
(SW 7 kph)
- 10SM
16:35
Clear
66°F / 19°C 48°F / 9°C 52% 29.65 in
(1004 mb)
SSW 4.6 mph
(SSW 7 kph)
- 10SM
16:15
Clear
68°F / 20°C 50°F / 10°C 53% 29.65 in
(1004 mb)
SW 6.9 mph
(SW 11 kph)
- 10SM
15:55
Clear
68°F / 20°C 50°F / 10°C 53% 29.65 in
(1004 mb)
SW 4.6 mph
(SW 7 kph)
- 10SM
15:35
Clear
66°F / 19°C 48°F / 9°C 52% 29.65 in
(1004 mb)
SSW 5.8 mph
(SSW 9 kph)
- 10SM
15:15
Clear
66°F / 19°C 48°F / 9°C 52% 29.65 in
(1004 mb)
SW 4.6 mph
(SW 7 kph)
- 10SM
14:55
Clear
66°F / 19°C 48°F / 9°C 52% 29.65 in
(1004 mb)
SW 8.1 mph
(SW 13 kph)
- 10SM
14:35
Clear
63°F / 17°C 48°F / 9°C 59% 29.68 in
(1005 mb)
SSW 6.9 mph
(SSW 11 kph)
- 10SM
14:15
Clear
61°F / 16°C 48°F / 9°C 63% 29.68 in
(1005 mb)
WNW 8.1 mph
(WNW 13 kph)
- 10SM
13:55
Clear
61°F / 16°C 50°F / 10°C 68% 29.68 in
(1005 mb)
SSW 3.5 mph
(SSW 6 kph)
- 10SM
13:35
Clear
61°F / 16°C 50°F / 10°C 68% 29.71 in
(1006 mb)
SW 5.8 mph
(SW 9 kph)
- 10SM
13:15
Clear
59°F / 15°C 50°F / 10°C 72% 29.71 in
(1006 mb)
SSW 5.8 mph
(SSW 9 kph)
- 10SM
12:55
Clear
59°F / 15°C 50°F / 10°C 72% 29.74 in
(1007 mb)
SW 4.6 mph
(SW 7 kph)
- 10SM
12:35
Clear
57°F / 14°C 50°F / 10°C 77% 29.74 in
(1007 mb)
SSW 4.6 mph
(SSW 7 kph)
- 10SM
12:15
Clear
57°F / 14°C 52°F / 11°C 82% 29.77 in
(1008 mb)
Calm - 10SM
11:55
Partly Cloudy
55°F / 13°C 50°F / 10°C 82% 29.77 in
(1008 mb)
W 3.5 mph
(W 6 kph)
- 10SM
11:35
Mostly Cloudy
55°F / 13°C 52°F / 11°C 88% 29.77 in
(1008 mb)
SW 4.6 mph
(SW 7 kph)
- 7SM
11:15
Overcast
55°F / 13°C 52°F / 11°C 88% 29.8 in
(1009 mb)
SW 5.8 mph
(SW 9 kph)
- 7SM
10:55
Overcast
55°F / 13°C 52°F / 11°C 88% 29.8 in
(1009 mb)
SSW 3.5 mph
(SSW 6 kph)
- 7SM
10:35
Overcast
54°F / 12°C 52°F / 11°C 94% 29.8 in
(1009 mb)
SSW 4.6 mph
(SSW 7 kph)
- 7SM
10:15
Overcast
54°F / 12°C 52°F / 11°C 94% 29.8 in
(1009 mb)
Calm - 7SM
09:55
Overcast
Fog And Mist
54°F / 12°C 52°F / 11°C 94% 29.8 in
(1009 mb)
W 4.6 mph
(W 7 kph)
- 5SM
09:35
Overcast
Fog And Mist
54°F / 12°C 52°F / 11°C 94% 29.8 in
(1009 mb)
Calm - 5SM
09:15
Overcast
Fog And Mist
54°F / 12°C 52°F / 11°C 94% 29.8 in
(1009 mb)
Calm - 5SM
08:55
Overcast
Fog And Mist
54°F / 12°C 52°F / 11°C 94% 29.8 in
(1009 mb)
Calm - 5SM
08:35
Overcast
Fog And Mist
54°F / 12°C 52°F / 11°C 94% 29.8 in
(1009 mb)
SW 3.5 mph
(SW 6 kph)
- 5SM
08:15
Overcast
54°F / 12°C 52°F / 11°C 94% 29.8 in
(1009 mb)
SSE 3.5 mph
(SSE 6 kph)
- 7SM
07:55
Overcast
Fog And Mist
54°F / 12°C 52°F / 11°C 94% 29.8 in
(1009 mb)
Calm - 5SM
07:35
Overcast
Fog And Mist
54°F / 12°C 54°F / 12°C 100% 29.8 in
(1009 mb)
Calm - 5SM
07:15
Overcast
Fog And Mist
54°F / 12°C 54°F / 12°C 100% 29.8 in
(1009 mb)
Calm - 4SM
06:55
Overcast
Fog And Mist
54°F / 12°C 54°F / 12°C 100% 29.8 in
(1009 mb)
Calm - 4SM
06:35
Overcast
Fog And Mist
54°F / 12°C 54°F / 12°C 100% 29.77 in
(1008 mb)
Calm - 4SM
06:15
Overcast
Fog And Mist
54°F / 12°C 54°F / 12°C 100% 29.77 in
(1008 mb)
Calm - 3SM
05:55
Overcast
Fog And Mist
54°F / 12°C 54°F / 12°C 100% 29.77 in
(1008 mb)
Calm - 3SM
05:35
Overcast
Fog And Mist
54°F / 12°C 54°F / 12°C 100% 29.77 in
(1008 mb)
Calm - 3SM
05:15
Overcast
Fog And Mist
54°F / 12°C 54°F / 12°C 100% 29.8 in
(1009 mb)
Calm - 3SM
04:55
Overcast
Fog And Mist
54°F / 12°C 54°F / 12°C 100% 29.8 in
(1009 mb)
Calm - 3SM
04:35
Overcast
Fog And Mist
54°F / 12°C 52°F / 11°C 94% 29.8 in
(1009 mb)
Calm - 2 1/2SM
04:15
Overcast
Fog And Mist
54°F / 12°C 52°F / 11°C 94% 29.77 in
(1008 mb)
Calm - 1 1/4SM
03:55
Overcast
Fog And Mist
54°F / 12°C 52°F / 11°C 94% 29.8 in
(1009 mb)
ESE 3.5 mph
(ESE 6 kph)
- 1 1/4SM
03:35
Overcast
Fog And Mist
54°F / 12°C 52°F / 11°C 94% 29.8 in
(1009 mb)
ESE 3.5 mph
(ESE 6 kph)
- 1 1/2SM
03:15
Overcast
Fog And Mist
52°F / 11°C 52°F / 11°C 100% 29.8 in
(1009 mb)
E 3.5 mph
(E 6 kph)
- 1 1/4SM
02:55
Overcast
Fog And Mist
50°F / 10°C 50°F / 10°C 100% 29.8 in
(1009 mb)
Calm - 1SM
02:35
Overcast
Fog And Mist
50°F / 10°C 50°F / 10°C 100% 29.8 in
(1009 mb)
ENE 3.5 mph
(ENE 6 kph)
- 1SM
02:15
Overcast
Fog And Mist
50°F / 10°C 50°F / 10°C 100% 29.8 in
(1009 mb)
E 4.6 mph
(E 7 kph)
- 3/4SM
01:55
Overcast
Fog And Mist
50°F / 10°C 50°F / 10°C 100% 29.8 in
(1009 mb)
ESE 5.8 mph
(ESE 9 kph)
- 3/4SM
01:35
Overcast
Fog And Mist
50°F / 10°C 50°F / 10°C 100% 29.83 in
(1010 mb)
E 5.8 mph
(E 9 kph)
- 1SM
01:15
Overcast
Fog And Mist
50°F / 10°C 50°F / 10°C 100% 29.83 in
(1010 mb)
E 5.8 mph
(E 9 kph)
- 4SM
00:55
Overcast
Fog And Mist
50°F / 10°C 50°F / 10°C 100% 29.83 in
(1010 mb)
E 4.6 mph
(E 7 kph)
- 5SM
00:35
Overcast
50°F / 10°C 50°F / 10°C 100% 29.83 in
(1010 mb)
E 5.8 mph
(E 9 kph)
- 7SM
00:15
Overcast
50°F / 10°C 48°F / 9°C 94% 29.86 in
(1011 mb)
E 5.8 mph
(E 9 kph)
- 7SM
Time Weather Temperature Dewpoint Humidity Pressure Winds Precip Visibility


Weather for websites

WeatherForYou.com, LLC is not responsible for any damages or problems caused by this service. Current weather conditions are obtained from the closest station including government and personal stations which may have varying degrees of accuracy. Weather forecasts are derived from the NOAA NDFD. Like all things, this site belongs to Jesus Christ... He just trusts me to maintain it. If you have any questions or comments email webmaster@weatherforyou.com

Copyright © 2014, WeatherForYou.com LLC. All rights reserved.